Home > Weather > Lexington > Past weeks

Flag for USA Past Weather in Lexington, Virginia, USA — Yesterday and Last 2 Weeks

Now
70 °F

Clear.


Feels Like: 72 °F
Forecast: 64 / 89 °F
Wind: 5 mph from South

Location: Hot Springs / Ingalls

Current Time: Aug 28, 2016 at 10:16:03 PM

Latest Report: Aug 28, 2016 at 9:15 PM


Visibility: 10 mi

Pressure: 30.33 "Hg

Humidity: 77%

Dew Point: 63 °F

Location of LexingtonLocation

Past Weather in Lexington — Graph

°F

Lexington Temperature Yesterday

Maximum temperature yesterday: 82 °F (at 3:35 PM)
Minimum temperature yesterday: 69 °F (at 5:55 AM)
Average temperature yesterday: 74 °F

High & Low Weather Summary for the Past Weeks

 TemperatureHumidityPressure
High83 °F (Aug 26, 3:55 PM)100% (Aug 13, 11:18 PM)30.44 "Hg (Aug 13, 11:18 PM)
Low56 °F (Aug 22, 6:55 AM)49% (Aug 22, 1:15 PM)29.95 "Hg (Aug 21, 3:55 AM)
Average70 °F83%30.27 "Hg
* Reported Aug 13 9:18 PM — Aug 28 9:15 PM, Lexington, Weather by CustomWeather, © 2016

Note: Actual official high and low records may vary slightly from our data, if they occured in-between our weather recording intervals... More about our weather records

Advertising

Lexington Weather History for the Previous 24 Hours

Scroll right to see more
 ConditionsComfort  
Time TempWeatherWind HumidityBarometerVisibility
9:15 PM
Sun, Aug 28
70 °FClear.5 mph77%30.33 "Hg10 mi
8:55 PM71 °FClear.5 mph77%30.32 "Hg10 mi
8:35 PM71 °FSunny.7 mph77%30.32 "Hg10 mi
8:15 PM72 °FSunny.6 mph76%30.32 "Hg10 mi
7:55 PM72 °FSunny.5 mph70%30.32 "Hg10 mi
7:35 PM74 °FSunny.5 mph68%30.31 "Hg10 mi
7:15 PM76 °FSunny.No wind67%30.31 "Hg10 mi
6:55 PM77 °FSunny.No wind65%30.31 "Hg10 mi
6:15 PM78 °FSunny.5 mph62%30.31 "Hg10 mi
5:55 PM79 °FSunny.No wind60%30.32 "Hg10 mi
5:15 PM79 °FScattered clouds.6 mph60%30.33 "Hg10 mi
4:55 PM80 °FScattered clouds.6 mph59%30.33 "Hg10 mi
4:35 PM79 °FBroken clouds.3 mph61%30.33 "Hg10 mi
4:15 PM79 °FBroken clouds.7 mph61%30.33 "Hg10 mi
3:55 PM81 °FPartly sunny.6 mph59%30.34 "Hg10 mi
3:15 PM79 °FPartly sunny.7 mph62%30.36 "Hg10 mi
2:55 PM80 °FPartly sunny.6 mph61%30.37 "Hg10 mi
2:35 PM79 °FScattered clouds.6 mph65%30.37 "Hg10 mi
2:15 PM78 °FPartly sunny.5 mph66%30.37 "Hg10 mi
1:55 PM77 °FPartly sunny.3 mph68%30.38 "Hg10 mi
1:35 PM78 °FScattered clouds.3 mph66%30.39 "Hg10 mi
1:15 PM77 °FScattered clouds.5 mph68%30.39 "Hg10 mi
12:55 PM77 °FScattered clouds.5 mph68%30.39 "Hg10 mi
12:35 PM75 °FScattered clouds.3 mph71%30.39 "Hg10 mi
12:15 PM76 °FBroken clouds.6 mph70%30.40 "Hg10 mi
11:55 AM74 °FBroken clouds.5 mph73%30.40 "Hg10 mi
11:35 AM74 °FScattered clouds.5 mph71%30.40 "Hg10 mi
11:15 AM74 °FBroken clouds.5 mph71%30.40 "Hg10 mi
10:55 AM73 °FScattered clouds.6 mph75%30.40 "Hg10 mi
10:35 AM72 °FBroken clouds.No wind79%30.40 "Hg10 mi
10:15 AM71 °FCloudy.3 mph79%30.40 "Hg10 mi
9:55 AM70 °FOvercast.No wind80%30.40 "Hg10 mi
9:15 AM71 °FSunny.3 mph76%30.39 "Hg10 mi
8:55 AM70 °FSunny.3 mph77%30.39 "Hg10 mi
8:15 AM69 °FSunny.3 mph83%30.38 "Hg10 mi
7:55 AM68 °FSunny.3 mph85%30.37 "Hg10 mi
7:35 AM65 °FClear.3 mph90%30.37 "Hg10 mi
7:15 AM64 °FClear.No wind99%30.37 "Hg10 mi
6:55 AM65 °FClear.No wind93%30.37 "Hg10 mi
6:35 AM65 °FPassing clouds.No wind94%30.35 "Hg10 mi
6:15 AM66 °FPassing clouds.3 mph91%30.35 "Hg10 mi
5:55 AM66 °FPassing clouds.7 mph100%30.34 "Hg10 mi
5:35 AM66 °FOvercast.7 mph100%30.33 "Hg10 mi
5:15 AM66 °FPassing clouds.7 mph100%30.34 "Hg7 mi
4:55 AM66 °FPartly cloudy.6 mph100%30.34 "Hg10 mi
4:15 AM67 °FMostly cloudy.5 mph100%30.34 "Hg10 mi
3:55 AM68 °FMostly cloudy.5 mph100%30.34 "Hg10 mi
3:35 AM68 °FOvercast.8 mph100%30.35 "Hg10 mi
3:15 AM69 °FOvercast.6 mph100%30.34 "Hg10 mi
2:55 AM69 °FOvercast.5 mph100%30.34 "Hg10 mi
2:35 AM69 °FOvercast.3 mph100%30.34 "Hg10 mi
2:15 AM68 °FMostly cloudy.3 mph100%30.34 "Hg7 mi
1:55 AM68 °FOvercast.3 mph100%30.34 "Hg10 mi
1:35 AM68 °FPartly cloudy.5 mph100%30.34 "Hg10 mi
1:15 AM68 °FPassing clouds.6 mph100%30.35 "Hg10 mi
12:55 AM69 °FPassing clouds.6 mph100%30.35 "Hg10 mi
12:35 AM68 °FClear.6 mph100%30.35 "Hg10 mi
12:15 AM69 °FClear.6 mph100%30.36 "Hg10 mi
11:55 PM
Sat, Aug 27
69 °FClear.3 mph100%30.37 "Hg10 mi
11:15 PM70 °FLow clouds.6 mph100%30.37 "Hg10 mi
10:55 PM71 °FPartly cloudy.6 mph100%30.37 "Hg10 mi
10:35 PM71 °FPassing clouds.6 mph100%30.37 "Hg10 mi
10:15 PM71 °FClear.5 mph94%30.36 "Hg10 mi
Weather by CustomWeather, © 2016

See weather overviewHow to use our weather pages